SCP
1 1 1 1 0 0 0 0 0 0 0 0 0 0 1 0 1 1 1 2 3 2 1 0 0 0 0 0 0 0 0 0 0 0 0 0 0 0 0 0 0 0 0
1 1 1 0 0 0 0 0 0 0 0 0 0 0 0 0 0 0 1 2 4 2 1 0 0 0 0 0 0 0 0 0 0 0 0 0 0 0 0 0 0 0 0
0 0 0 0 0 0 0 0 0 0 0 0 0 0 0 0 0 0 0 1 2 1 0 0 0 0 0 0 0 0 0 0 0 0 0 0 0 0 0 0 0 0 0
0 0 0 0 0 0 0 0 0 0 0 0 0 0 0 0 0 0 0 0 0 0 0 0 0 0 0 0 0 0 0 0 0 0 0 0 0 0 0 0 0 0 0
0 0 0 0 0 0 0 0 0 0 0 0 0 0 0 0 0 0 0 0 0 0 0 0 0 0 0 0 0 0 0 0 0 0 0 0 0 0 0 0 0 0 0
0 0 0 0 0 0 0 0 0 0 0 0 0 0 0 0 0 0 0 0 0 0 0 0 0 0 0 0 0 0 0 0 0 0 0 0 0 0 0 0 0 0 0
0 0 0 0 0 0 0 0 0 0 0 0 0 0 0 0 0 0 0 0 0 0 0 0 0 0 0 0 0 0 0 0 0 0 0 0 0 0 0 0 0 0 0
0 0 0 0 0 0 0 0 0 0 0 0 0 0 0 0 0 0 0 0 0 0 0 0 0 0 0 0 0 0 0 0 0 0 0 0 0 0 0 0 0 0 0
0 0 0 0 0 0 0 0 0 0 0 0 0 0 0 0 0 0 0 0 0 0 0 0 0 0 0 0 0 0 0 0 0 0 0 0 0 0 0 0 0 0 0
0 0 0 0 0 0 0 0 0 0 0 0 0 0 0 0 0 0 0 0 0 0 0 0 0 0 0 0 0 0 0 0 0 0 0 0 0 0 0 0 0 0 0
0 0 0 0 0 0 0 0 0 0 0 0 0 0 0 0 0 0 0 0 0 0 0 0 0 0 0 0 0 0 0 0 0 0 0 0 0 0 0 0 0 0 0
0 0 0 0 0 0 0 0 0 0 0 0 0 0 0 0 0 0 0 0 0 0 0 0 0 0 0 0 0 0 0 0 0 0 0 0 0 0 0 0 0 0 0
0 0 0 0 0 0 0 0 0 0 0 0 0 0 0 0 0 0 0 0 0 0 0 0 0 0 0 0 0 0 0 0 0 0 0 0 0 0 0 0 0 0 0
0 0 0 0 0 0 0 0 0 0 0 0 0 0 0 0 0 0 0 0 0 0 0 0 0 0 0 0 0 0 0 0 0 0 0 0 0 0 0 0 0 0 0
0 0 0 0 0 0 0 0 0 0 0 0 0 0 0 0 0 0 0 0 0 0 0 0 0 0 0 0 0 0 0 0 0 0 0 0 0 0 0 0 0 0 0
0 0 0 0 0 0 0 0 0 0 0 0 0 0 0 0 0 0 0 0 0 0 0 0 0 0 0 0 0 0 0 0 0 0 0 0 0 0 0 0 0 0 0
0 0 0 0 0 0 0 0 0 0 0 0 0 0 0 0 0 0 0 0 0 0 0 0 0 0 0 0 0 0 0 0 0 0 0 0 0 0 0 0 0 0 0
0 0 0 0 0 0 0 0 0 0 0 0 0 0 0 0 0 0 0 0 0 0 0 0 0 0 0 0 0 0 0 0 0 0 0 0 0 0 0 0 0 0 0
0 0 0 0 0 0 0 0 0 0 0 0 0 0 0 0 0 0 0 0 0 0 0 0 0 0 0 0 0 0 0 0 0 0 0 0 0 0 0 0 0 0 0
0 0 0 0 0 0 0 0 0 0 0 0 0 0 0 0 0 0 0 0 0 0 0 0 0 0 0 0 0 0 0 0 0 0 0 0 0 0 0 0 0 0 0
0 0 0 0 0 0 0 0 0 0 0 0 0 0 0 0 0 0 0 0 0 0 0 0 0 0 0 0 0 0 0 0 0 0 0 0 0 0 0 0 0 0 0
0 0 0 0 0 0 0 0 0 0 0 0 0 0 0 0 0 0 0 0 0 0 0 0 0 0 0 0 0 0 0 0 0 0 0 0 0 0 0 0 0 0 0
0 0 0 0 0 0 0 0 0 0 0 0 0 0 0 0 0 0 0 0 0 0 0 0 0 0 0 0 0 0 0 0 0 0 0 0 0 0 0 0 0 0 0
0 0 0 0 0 0 0 0 0 0 0 0 0 0 0 0 0 0 0 0 0 0 0 0 0 0 0 0 0 0 0 0 0 0 0 0 0 0 0 0 0 0 0
0 0 0 0 0 0 0 0 0 0 0 0 0 0 0 0 0 0 0 0 0 0 0 0 0 0 0 0 0 0 0 0 0 0 0 0 0 0 0 0 0 0 0
0 0 0 0 0 0 0 0 0 0 0 0 0 0 0 0 0 0 0 0 0 0 0 0 0 0 0 0 0 0 0 0 0 0 0 0 0 0 0 0 0 0 0
Wind_Speed
6 7 7 8 7 6 6 6 6 6 5 3 3 3 2 2 4 4 6 6 7 6 6 4 4 5 4 4 4 3 3 2 1 1 2 3 3 4 4 5 4 5 4
8 9 9 9 8 7 6 5 6 6 5 3 2 1 1 3 3 4 4 5 5 6 6 6 5 5 4 4 4 4 3 2 2 3 1 2 3 2 1 1 2 3 2
7 7 7 6 6 6 5 5 5 5 5 5 3 2 2 2 2 3 3 3 3 4 4 5 5 6 6 5 5 5 5 4 2 2 3 3 3 2 2 1 2 2 2
4 4 5 6 5 5 4 4 4 4 4 4 3 3 2 1 2 3 3 4 4 2 1 3 4 5 5 5 6 6 4 5 3 2 2 2 3 2 2 2 2 3 4
4 5 5 6 6 6 5 4 4 4 3 3 2 2 1 1 2 2 4 4 5 5 5 2 1 4 4 5 6 6 6 5 4 4 3 2 2 2 2 3 3 3 4
4 5 6 6 7 7 6 5 5 4 4 3 2 0 0 1 1 2 3 3 2 3 4 4 3 2 3 5 6 7 8 6 5 4 4 4 3 4 4 4 3 4 4
4 6 7 7 8 8 8 7 6 6 5 5 4 4 3 3 2 2 2 2 2 2 3 3 2 2 3 5 6 7 7 8 7 6 5 5 4 3 3 3 3 3 3
5 6 7 7 8 8 8 8 8 8 7 6 6 5 5 3 3 4 3 3 2 3 3 3 2 3 3 4 5 6 7 7 8 8 7 5 5 5 5 4 3 2 2
7 7 7 6 7 8 9 8 9 9 9 8 7 7 7 6 6 6 5 4 4 4 3 3 3 3 3 3 4 5 7 7 8 8 8 6 5 5 5 5 4 3 2
8 8 7 7 7 7 8 8 8 9 10 9 8 8 8 8 8 6 7 7 6 5 5 4 4 3 3 3 3 4 5 7 7 6 7 7 5 5 5 5 5 5 4
9 8 8 7 8 9 9 9 9 9 10 10 10 10 10 9 8 7 8 8 7 6 6 6 5 4 4 3 3 3 4 6 7 7 8 9 7 6 6 6 6 6 6
9 9 8 8 9 10 11 11 10 10 11 11 10 10 11 10 9 10 11 9 9 8 8 7 6 6 6 4 4 4 4 4 6 6 7 9 7 9 7 6 7 6 7
9 9 9 9 10 10 11 11 11 12 12 11 10 11 11 11 12 13 12 11 10 10 9 8 8 8 7 6 6 6 5 5 5 5 6 7 7 9 7 8 7 6 6
9 9 9 9 10 9 9 10 11 11 11 11 11 12 12 12 13 12 12 12 11 11 10 10 10 9 8 7 7 7 6 6 6 5 5 6 6 8 8 7 8 7 7
10 10 9 9 8 8 8 9 9 9 10 11 12 12 12 12 12 12 12 11 11 12 11 10 9 8 7 7 8 8 7 7 7 6 6 5 7 9 8 7 7 8 7
10 10 10 10 9 9 9 9 9 10 10 11 12 12 12 12 12 12 12 11 11 10 10 10 10 9 7 10 12 9 7 7 7 6 6 5 7 9 11 13 13 12 10
12 12 11 11 11 11 11 10 10 10 10 12 12 12 12 12 12 13 12 11 10 9 9 10 10 9 10 12 12 11 7 7 7 7 6 6 6 7 7 9 13 15 14
10 11 11 11 12 11 11 11 11 11 12 13 13 12 12 13 12 11 11 11 9 7 7 8 9 8 9 12 11 11 7 7 8 8 8 7 7 7 7 7 8 9 11
11 11 12 13 11 11 11 12 12 12 13 14 13 13 13 13 13 12 11 9 8 7 7 6 8 8 8 10 10 8 4 6 8 8 8 8 8 9 9 8 9 8 7
10 11 11 11 11 11 11 12 14 14 14 14 14 14 13 13 13 12 10 8 7 7 7 8 8 8 8 9 10 8 4 6 6 6 6 8 8 9 9 9 9 9 8
12 12 12 11 11 11 11 13 14 14 15 15 15 14 12 12 12 10 8 8 7 7 6 7 6 7 8 8 10 9 5 6 6 5 5 4 5 8 10 11 9 9 8
11 11 11 12 11 10 10 14 14 15 15 15 14 13 12 11 9 8 7 7 6 6 5 5 5 5 6 7 8 10 10 9 7 6 5 4 4 4 5 7 8 11 11
11 11 11 13 12 10 10 13 15 15 15 14 13 12 12 9 8 8 8 6 5 5 5 5 5 5 4 5 10 11 11 12 7 5 7 7 5 3 3 3 8 12 9
11 11 12 13 13 12 12 12 14 14 14 14 12 10 10 9 7 6 5 5 5 5 5 5 6 5 4 4 4 5 5 8 7 5 7 7 5 3 2 3 5 7 7
10 10 11 13 14 13 14 13 12 13 14 13 10 9 8 8 7 6 5 5 5 5 5 5 5 5 5 6 7 6 5 7 7 7 5 3 3 2 1 2 3 4 6
11 11 12 13 14 14 14 12 11 12 13 11 9 7 7 6 6 6 6 5 5 5 7 6 5 4 6 5 6 9 9 10 12 8 6 5 4 3 2 2 2 4 6
Wind_Direction
16 16 13 13 12 6 1 349 349 346 344 339 346 355 8 306 286 268 256 248 237 216 195 188 176 173 176 180 170 155 166 177 141 139 294 293 260 254 253 251 252 261 269
18 13 7 6 3 357 356 358 355 348 340 321 294 289 283 261 267 273 262 248 234 220 207 190 181 175 169 170 173 160 157 173 168 163 159 317 328 311 297 277 263 268 286
12 357 349 344 343 348 353 352 345 348 352 343 320 295 278 287 314 319 317 304 264 228 213 200 187 179 174 181 185 176 167 175 189 187 162 174 232 299 309 289 292 297 299
342 329 325 326 326 321 326 328 326 335 349 3 21 23 20 4 345 325 330 335 343 328 257 205 197 192 188 187 189 186 177 162 177 196 207 195 177 182 304 315 322 310 292
304 303 303 303 301 301 301 296 302 314 329 354 24 54 50 331 296 314 343 358 5 17 15 8 237 213 206 204 193 186 187 177 172 177 177 186 190 185 202 276 312 311 285
284 288 287 287 287 287 285 280 285 288 290 298 303 223 190 284 320 330 337 341 342 359 16 16 3 277 229 216 209 200 195 194 183 184 183 176 174 184 192 228 262 289 288
273 278 280 279 279 282 281 280 280 280 277 274 268 257 248 247 253 263 280 298 310 309 328 346 339 316 264 234 212 206 207 199 196 194 197 198 201 180 177 205 243 268 289
285 281 283 285 289 293 291 286 279 276 274 266 262 257 253 251 253 253 250 254 253 260 273 294 299 305 294 263 223 213 212 205 205 205 201 200 208 197 191 194 204 256 269
307 301 303 305 302 300 296 287 280 276 274 267 260 256 248 240 241 245 245 246 246 250 253 268 281 293 304 296 256 229 218 210 211 211 208 208 207 198 202 202 199 214 250
313 312 310 305 303 300 298 297 282 272 272 271 263 259 249 241 238 236 239 240 244 245 254 258 259 265 271 281 277 250 230 220 220 214 214 216 211 204 201 201 205 208 221
306 304 298 293 296 299 298 294 287 279 276 272 267 262 260 253 242 237 240 240 241 239 241 245 250 255 258 254 257 265 259 239 231 223 220 225 216 210 204 198 198 204 211
303 300 294 294 298 298 297 294 289 282 275 271 268 264 262 259 252 246 245 238 235 234 233 236 240 247 249 241 236 243 253 259 251 236 229 233 226 221 213 202 202 203 205
305 302 298 296 297 297 298 299 297 294 292 290 283 277 270 262 255 250 246 239 232 232 229 224 230 237 239 239 238 236 234 234 243 240 234 235 230 229 219 211 207 202 200
300 298 295 292 292 294 297 298 298 299 301 299 294 287 281 273 267 259 250 241 233 228 226 222 224 229 233 235 239 238 239 235 230 230 234 235 234 237 229 218 213 196 193
298 296 294 293 293 295 296 296 296 299 301 301 299 294 291 287 280 273 263 252 240 232 224 219 218 222 225 232 232 232 235 234 233 229 228 233 244 247 239 225 213 193 193
304 304 302 302 303 303 303 302 299 298 297 296 295 294 293 291 287 282 275 265 251 237 222 215 213 212 219 227 227 224 227 229 231 237 239 242 254 257 250 237 219 198 192
306 305 305 306 308 307 305 302 297 299 298 296 295 295 293 291 289 288 284 273 259 242 227 221 211 210 219 227 234 235 227 228 231 233 240 252 252 260 262 249 227 210 202
299 303 306 308 305 301 301 300 303 304 303 300 297 296 295 294 292 287 282 275 266 251 235 227 220 211 222 226 233 241 234 232 236 233 231 239 256 260 256 244 225 213 209
302 305 305 305 304 305 307 310 311 309 306 303 299 297 294 292 290 287 282 277 267 256 244 233 225 215 224 230 235 237 224 234 240 236 229 231 249 257 245 230 219 211 211
303 303 302 303 307 310 313 315 315 311 307 304 300 296 291 289 286 282 280 274 265 255 248 242 229 219 224 231 236 231 214 234 241 237 230 231 245 257 240 223 213 207 200
301 303 305 310 311 313 318 317 314 312 308 305 301 298 291 288 283 279 275 271 263 251 241 241 235 225 225 234 237 232 212 224 232 230 225 224 242 254 240 223 215 203 181
306 309 310 312 313 315 318 317 314 311 309 307 305 303 297 293 291 281 276 269 262 247 232 236 241 237 233 234 240 236 226 218 218 220 212 204 217 245 235 221 205 178 170
307 312 312 313 314 315 316 315 314 313 313 312 312 309 307 300 291 283 278 271 255 245 228 221 233 241 237 237 237 240 236 219 209 209 193 185 192 196 189 202 189 173 172
311 314 315 316 317 318 317 312 313 315 315 316 318 317 316 312 305 293 278 267 254 244 226 221 227 234 237 237 233 229 221 204 195 184 172 169 172 166 152 147 181 184 175
310 313 315 314 315 317 317 317 318 319 320 320 320 320 320 320 315 309 293 279 259 246 230 221 217 221 234 237 223 205 193 183 178 164 162 170 176 178 157 155 178 176 165
312 316 317 316 316 316 315 317 320 322 322 322 324 322 321 323 322 321 319 300 280 267 239 232 225 228 236 254 231 207 193 176 162 160 173 182 184 182 168 169 177 170 160